Location: Firdgum
(53.2488°N, 5.5615°E)
Time: 05:46:10
(UTC+00:00)

USA 234 - Pass Details

Date: 08 December 2019
Orbit: 1100 x 1107 km, 123.0° (Epoch: 27 January)

Event Time Altitude Azimuth Distance (km) Brightness Sun altitude
Rises 06:08:27 0° 72° (ENE) 3,930 7.0 -12.4°
Reaches altitude 10° 06:10:56 10° 70° (ENE) 2,972 6.3 -12.1°
Maximum altitude 06:17:28 70° 349° (NNW) 1,171 3.3 -11.2°
Drops below altitude 10° 06:23:59 10° 267° (W) 2,971 5.0 -10.3°
Enters shadow 06:24:25 - 267° (W) 3,138 5.1 -10.2°
